When you browse on this site, cookies collect data to enhance your experience and personalize the content and advertising you see.
Visit our Privacy Policy to learn more. By continuing to use the site, you agree to this use of cookies and data.
  • In Portugal
  • List of Countries
  • For 7 days
  • Water Temperature
  • Satellite Maps
  • Weather Map
  • Weather Widgets
  • user-avatar
    Login

    Hourly Weather Dzierzgowo

    Today, 22 March, Friday

    Time Temperature Precipitation Wind Pressure Humidity
    00:00 +9°C° 0 mm 6 mps 757 mmHg 86%
    01:00 +8°C° 0 mm 5 mps 757 mmHg 86%
    02:00 +8°C° 0 mm 5 mps 757 mmHg 87%
    03:00 +8°C° 0 mm 5 mps 757 mmHg 87%
    04:00 +8°C° 0 mm 5 mps 757 mmHg 88%
    05:00 +8°C° 0 mm 5 mps 757 mmHg 87%
    06:00 +8°C° 0 mm 5 mps 758 mmHg 87%
    07:00 +8°C° 0 mm 4 mps 758 mmHg 86%
    08:00 +8°C° 0 mm 4 mps 759 mmHg 82%
    09:00 +8°C° 0 mm 4 mps 759 mmHg 78%
    10:00 +9°C° 0 mm 5 mps 760 mmHg 74%
    11:00 +10°C° 0 mm 4 mps 760 mmHg 67%
    12:00 +11°C° 0 mm 4 mps 760 mmHg 60%
    13:00 +12°C° 0 mm 3 mps 760 mmHg 53%
    14:00 +12°C° 0 mm 3 mps 760 mmHg 50%
    15:00 +12°C° 0 mm 3 mps 760 mmHg 46%
    16:00 +12°C° 0 mm 3 mps 760 mmHg 42%
    17:00 +10°C° 0 mm 3 mps 760 mmHg 46%
    18:00 +8°C° 0 mm 3 mps 760 mmHg 49%
    19:00 +7°C° 0 mm 2 mps 760 mmHg 52%
    20:00 +6°C° 0 mm 2 mps 760 mmHg 54%
    21:00 +5°C° 0 mm 2 mps 760 mmHg 55%
    22:00 +4°C° 0 mm 2 mps 760 mmHg 57%
    23:00 +4°C° 0 mm 2 mps 759 mmHg 58%

    Tomorrow, 23 March, Saturday

    Time Temperature Precipitation Wind Pressure Humidity
    00:00 +3°C° 0 mm 2 mps 759 mmHg 59%
    01:00 +3°C° 0 mm 2 mps 759 mmHg 61%
    02:00 +3°C° 0 mm 2 mps 759 mmHg 61%
    03:00 +3°C° 0 mm 2 mps 758 mmHg 62%
    04:00 +2°C° 0 mm 2 mps 758 mmHg 63%
    05:00 +3°C° 0 mm 2 mps 758 mmHg 63%
    06:00 +2°C° 0 mm 3 mps 758 mmHg 63%
    07:00 +3°C° 0 mm 3 mps 758 mmHg 63%
    08:00 +5°C° 0 mm 3 mps 757 mmHg 62%
    09:00 +8°C° 0 mm 3 mps 757 mmHg 62%
    10:00 +10°C° 0 mm 4 mps 757 mmHg 61%
    11:00 +11°C° 0 mm 4 mps 756 mmHg 60%
    12:00 +12°C° 0 mm 4 mps 756 mmHg 59%
    13:00 +13°C° 0 mm 5 mps 755 mmHg 58%
    14:00 +14°C° 0 mm 5 mps 755 mmHg 60%
    15:00 +14°C° 0 mm 5 mps 754 mmHg 61%
    16:00 +14°C° 0 mm 4 mps 754 mmHg 63%
    17:00 +13°C° 0 mm 4 mps 754 mmHg 70%
    18:00 +12°C° 0 mm 3 mps 753 mmHg 76%
    19:00 +10°C° 0 mm 3 mps 753 mmHg 83%
    20:00 +10°C° 0.2 mm 3 mps 753 mmHg 85%
    21:00 +8°C° 0.2 mm 4 mps 754 mmHg 87%
    22:00 +7°C° 0.2 mm 4 mps 754 mmHg 89%
    23:00 +6°C° 0 mm 4 mps 754 mmHg 84%

    Day after tomorrow, 24 March, Sunday

    Time Temperature Precipitation Wind Pressure Humidity
    00:00 +5°C° 0 mm 4 mps 754 mmHg 79%
    01:00 +4°C° 0 mm 4 mps 754 mmHg 74%
    02:00 +4°C° 0 mm 4 mps 754 mmHg 75%
    03:00 +3°C° 0 mm 4 mps 754 mmHg 75%
    04:00 +2°C° 0 mm 3 mps 754 mmHg 76%
    05:00 +1°C° 0 mm 4 mps 755 mmHg 75%
    06:00 +1°C° 0 mm 4 mps 755 mmHg 75%
    07:00 +1°C° 0 mm 4 mps 755 mmHg 74%
    08:00 +3°C° 0 mm 4 mps 755 mmHg 68%
    09:00 +5°C° 0 mm 4 mps 755 mmHg 62%
    10:00 +7°C° 0 mm 3 mps 755 mmHg 56%
    11:00 +6°C° 0 mm 4 mps 755 mmHg 52%
    12:00 +7°C° 0 mm 4 mps 755 mmHg 49%
    13:00 +8°C° 0 mm 4 mps 754 mmHg 45%
    14:00 +7°C° 0 mm 4 mps 754 mmHg 46%
    15:00 +7°C° 0 mm 4 mps 754 mmHg 47%
    16:00 +7°C° 0 mm 4 mps 753 mmHg 49%
    17:00 +6°C° 0 mm 4 mps 753 mmHg 54%
    18:00 +4°C° 0 mm 3 mps 753 mmHg 59%
    19:00 +3°C° 0 mm 3 mps 753 mmHg 64%
    20:00 +3°C° 0 mm 3 mps 753 mmHg 67%
    21:00 +2°C° 0 mm 3 mps 752 mmHg 69%
    22:00 +2°C° 0 mm 3 mps 752 mmHg 72%
    23:00 +1°C° 0 mm 3 mps 752 mmHg 73%

    25 March, Monday

    Time Temperature Precipitation Wind Pressure Humidity
    00:00 +1°C° 0 mm 3 mps 751 mmHg 74%
    01:00 +1°C° 0 mm 3 mps 751 mmHg 75%
    02:00 -1°C° 0 mm 4 mps 750 mmHg 76%
    03:00 -1°C° 0 mm 4 mps 750 mmHg 78%
    04:00 -1°C° 0 mm 4 mps 749 mmHg 79%
    05:00 -1°C° 0 mm 5 mps 748 mmHg 79%
    06:00 0°C° 0 mm 5 mps 748 mmHg 79%
    07:00 -1°C° 0 mm 6 mps 747 mmHg 78%
    08:00 0°C° 0.4 mm 7 mps 747 mmHg 78%
    09:00 0°C° 0.4 mm 7 mps 746 mmHg 78%
    10:00 0°C° 0.4 mm 8 mps 745 mmHg 79%
    11:00 +1°C° 0.3 mm 8 mps 745 mmHg 75%
    12:00 +2°C° 0.3 mm 8 mps 745 mmHg 71%
    13:00 +4°C° 0.3 mm 8 mps 744 mmHg 67%
    14:00 +3°C° 0.3 mm 7 mps 744 mmHg 67%
    15:00 +3°C° 0.3 mm 6 mps 744 mmHg 67%
    16:00 +3°C° 0.3 mm 5 mps 743 mmHg 68%
    17:00 +3°C° 0.1 mm 4 mps 744 mmHg 73%
    18:00 +2°C° 0.1 mm 3 mps 744 mmHg 78%
    19:00 +1°C° 0.1 mm 3 mps 745 mmHg 83%
    20:00 +1°C° 0.2 mm 3 mps 745 mmHg 85%
    21:00 -1°C° 0.2 mm 4 mps 746 mmHg 87%
    22:00 -1°C° 0.2 mm 5 mps 747 mmHg 89%
    23:00 -1°C° 0 mm 5 mps 748 mmHg 90%

    26 March, Tuesday

    Time Temperature Precipitation Wind Pressure Humidity
    00:00 -1°C° 0 mm 5 mps 749 mmHg 91%
    01:00 -1°C° 0 mm 5 mps 750 mmHg 92%
    02:00 -2°C° 0 mm 6 mps 751 mmHg 89%
    03:00 -2°C° 0 mm 7 mps 752 mmHg 86%
    04:00 -2°C° 0 mm 8 mps 753 mmHg 83%
    05:00 -2°C° 0 mm 7 mps 754 mmHg 81%
    06:00 -3°C° 0 mm 7 mps 755 mmHg 79%
    07:00 -3°C° 0 mm 6 mps 756 mmHg 76%
    08:00 -2°C° 0 mm 6 mps 757 mmHg 70%
    09:00 +1°C° 0 mm 5 mps 758 mmHg 64%
    10:00 +2°C° 0 mm 5 mps 758 mmHg 57%
    11:00 +3°C° 0 mm 5 mps 758 mmHg 56%
    12:00 +5°C° 0 mm 5 mps 758 mmHg 55%
    13:00 +6°C° 0 mm 5 mps 758 mmHg 54%
    14:00 +6°C° 0 mm 5 mps 758 mmHg 52%
    15:00 +6°C° 0 mm 5 mps 758 mmHg 50%
    16:00 +6°C° 0 mm 5 mps 757 mmHg 48%
    17:00 +5°C° 0 mm 4 mps 757 mmHg 52%
    18:00 +4°C° 0 mm 4 mps 757 mmHg 56%
    19:00 +3°C° 0 mm 4 mps 757 mmHg 61%
    20:00 +1°C° 0 mm 4 mps 757 mmHg 61%
    21:00 +1°C° 0 mm 4 mps 756 mmHg 61%
    22:00 +1°C° 0 mm 4 mps 756 mmHg 62%
    23:00 +1°C° 0 mm 4 mps 756 mmHg 62%

    27 March, Wednesday

    Time Temperature Precipitation Wind Pressure Humidity
    00:00 +1°C° 0 mm 5 mps 755 mmHg 63%
    01:00 +1°C° 0 mm 5 mps 755 mmHg 64%
    02:00 +1°C° 0.2 mm 5 mps 755 mmHg 67%
    03:00 +1°C° 0.2 mm 5 mps 754 mmHg 70%
    04:00 +1°C° 0.2 mm 5 mps 754 mmHg 73%
    05:00 +1°C° 0.2 mm 6 mps 754 mmHg 75%
    06:00 +1°C° 0.2 mm 6 mps 754 mmHg 77%
    07:00 +1°C° 0.2 mm 6 mps 754 mmHg 79%
    08:00 +2°C° 0 mm 6 mps 754 mmHg 80%
    09:00 +3°C° 0 mm 6 mps 754 mmHg 81%
    10:00 +3°C° 0 mm 5 mps 754 mmHg 81%
    11:00 +5°C° 0 mm 5 mps 754 mmHg 81%
    12:00 +5°C° 0 mm 5 mps 754 mmHg 81%
    13:00 +6°C° 0 mm 5 mps 754 mmHg 81%
    14:00 +6°C° 0 mm 5 mps 754 mmHg 82%
    15:00 +6°C° 0 mm 4 mps 754 mmHg 83%
    16:00 +6°C° 0 mm 4 mps 754 mmHg 84%
    17:00 +6°C° 0 mm 4 mps 755 mmHg 87%
    18:00 +5°C° 0 mm 3 mps 755 mmHg 90%
    19:00 +4°C° 0 mm 3 mps 756 mmHg 93%
    20:00 +4°C° 0 mm 3 mps 756 mmHg 94%
    21:00 +3°C° 0 mm 3 mps 757 mmHg 95%
    22:00 +2°C° 0 mm 3 mps 757 mmHg 96%
    23:00 +2°C° 0 mm 3 mps 758 mmHg 95%
    Show more